Location: Home
(42.5358°N, 72.7383°W)
Time: 19:08:40
(UTC-04:00)

First-Move - Pass Details

Date: 24 August 2022
Orbit: 569 x 659 km, 97.6° (Epoch: 27 September)

Event Time Altitude Azimuth Distance (km) Brightness Sun altitude
Rises 04:59:32 0° 10° (N) 2,846 ? -12.4°
Reaches altitude 10° 05:01:44 10° 9° (N) 1,926 ? -12.1°
Maximum altitude 05:05:53 74° 285° (WNW) 609 ? -11.4°
Drops below altitude 10° 05:09:56 10° 200° (SSW) 1,875 ? -10.7°
Enters shadow 05:10:47 - 199° (SSW) 2,226 ? -10.6°
